SCP
0 0 0 0 0 0 0 0 0 0 0 0 0 0 0 0 0 0 0 0 0 0 0 0 0 0 0 0 0 0 0 0 0 0 0 0 0 0
0 0 0 0 0 0 0 0 0 0 0 0 0 0 0 0 0 0 0 0 0 0 0 0 0 0 0 0 0 0 0 0 0 0 0 0 0 0
0 0 0 0 0 0 0 0 0 0 0 0 0 0 0 0 0 0 0 0 0 0 0 0 0 0 0 0 0 0 0 0 0 0 0 0 0 0
0 0 0 0 0 0 0 0 0 0 0 0 0 0 0 0 0 0 0 0 0 0 0 0 0 0 0 0 0 0 0 0 0 0 0 0 0 0
0 0 0 0 0 0 0 0 0 0 0 0 0 0 0 0 0 0 0 0 0 0 0 0 0 0 0 0 0 0 0 0 0 0 0 0 0 0
0 0 0 0 0 0 0 0 0 0 0 0 0 0 0 0 0 0 0 0 0 0 0 0 0 0 0 0 0 0 0 0 0 0 0 0 0 0
0 0 0 0 0 0 0 0 0 0 0 0 0 0 0 0 0 0 0 0 0 0 0 0 0 0 0 0 0 0 0 0 0 0 0 0 0 0
0 0 0 0 0 0 0 0 0 0 0 0 0 0 0 0 0 0 0 0 0 0 0 0 0 0 0 0 0 0 0 0 0 0 0 0 0 0
0 0 0 0 0 0 0 0 0 0 0 0 0 0 0 0 0 0 0 0 0 0 0 0 0 0 0 0 0 0 0 0 0 0 0 0 0 0
0 0 0 0 0 0 0 0 0 0 0 0 0 0 0 0 0 0 0 0 0 0 0 0 0 0 0 0 0 0 0 0 0 0 -0 -0 -0 -0
0 0 0 0 0 0 0 0 0 0 0 0 0 0 0 0 0 0 0 0 0 0 -0 0 0 0 0 0 0 -0 -0 -0 -0 -0 -0 -0 -0 -0
0 0 0 0 0 0 0 0 0 0 0 0 0 0 0 0 0 0 0 0 0 0 0 0 0 0 0 0 0 0 -0 -0 -0 -0 -0 -0 -0 0
0 0 0 0 0 0 0 0 0 0 0 0 0 0 0 0 0 0 0 0 0 0 0 0 0 0 0 0 0 0 -0 -0 -0 0 -0 0 0 0
0 0 0 0 0 0 0 0 0 0 0 0 0 0 0 0 0 0 0 0 0 0 0 0 0 0 0 0 0 0 0 -0 -0 -0 0 0 0 0
0 0 0 0 0 0 0 0 0 0 0 0 0 0 0 0 0 0 0 0 0 0 0 0 0 0 0 0 0 0 0 0 -0 -0 -0 -0 -0 0
0 0 0 0 0 0 0 0 0 0 0 0 0 0 0 0 0 0 0 0 0 0 0 0 0 0 0 0 0 0 0 0 0 0 0 0 0 0
0 0 0 0 0 0 0 0 0 0 0 0 0 0 0 0 0 0 0 0 0 0 0 0 0 0 0 0 0 0 0 0 0 0 0 0 0 0
0 0 0 0 0 0 0 0 0 0 0 0 0 0 0 0 0 0 0 0 0 0 0 0 0 0 0 0 0 0 0 0 0 0 0 0 0 0
0 0 0 0 0 0 0 0 0 0 0 0 0 0 0 0 0 0 0 0 0 0 0 0 0 0 0 0 0 0 0 0 0 0 0 0 0 0
0 0 0 0 0 0 0 0 0 0 0 0 0 0 0 0 0 0 0 0 0 0 0 0 0 0 0 0 0 0 0 0 0 0 0 0 0 0
0 0 0 0 0 0 0 0 0 0 0 0 0 0 0 0 0 0 0 0 0 0 0 0 0 0 0 0 0 0 0 0 0 0 0 0 0 0
0 0 0 0 0 0 0 0 0 0 0 0 0 0 0 0 0 0 0 0 0 0 0 0 0 0 0 0 0 0 0 0 0 0 0 0 0 0
0 0 0 0 0 0 0 0 0 0 0 0 0 0 0 0 0 0 0 0 0 0 0 0 0 0 0 0 0 0 0 0 0 0 0 0 0 0
Wind_Speed_500mb
41 43 46 48 48 49 50 50 55 74 137 79 68 94 95 95 97 88 87 86 82 77 83 86 89 85 89 91 93 92 86 91 89 93 91 88 88 89
48 50 51 54 54 54 55 55 54 59 90 106 110 105 101 101 93 85 87 87 82 75 73 77 80 77 80 85 85 87 88 91 93 90 90 87 87 84
48 52 53 55 55 55 55 56 58 60 75 116 98 102 102 98 100 95 90 83 80 81 81 79 78 74 78 79 80 82 83 85 87 87 88 90 92 91
50 51 51 53 52 54 57 58 59 57 61 86 101 104 93 93 96 97 93 86 85 81 81 74 79 80 73 71 75 79 82 83 84 83 85 85 88 89
50 51 52 53 55 56 57 59 61 58 59 68 93 91 98 94 98 91 93 89 80 81 88 85 76 69 68 66 68 68 71 77 87 90 90 92 93 93
48 48 50 54 59 62 63 63 63 59 62 67 79 90 87 83 72 86 99 88 89 93 83 82 78 78 73 67 68 65 72 75 76 81 85 89 90 92
51 52 53 56 59 60 59 59 54 56 61 68 77 79 80 89 83 84 87 98 89 77 98 80 76 65 62 62 64 62 62 65 68 69 74 84 88 86
54 54 56 58 59 56 50 42 44 52 56 57 62 66 76 81 88 82 75 83 95 84 74 70 62 61 59 63 61 60 57 55 54 52 53 55 51 29
54 54 55 56 53 53 49 49 47 44 37 43 58 61 68 68 70 76 79 73 73 68 63 65 60 61 59 55 59 56 47 42 21 34 8 5 10 71
50 50 52 53 51 47 49 45 46 41 41 51 42 44 45 52 56 57 61 61 55 49 49 63 62 67 46 64 54 46 34 19 5 15 24 79 91 95
44 42 41 46 44 43 42 47 46 44 48 37 33 36 37 38 44 49 55 62 68 49 57 58 61 64 54 57 49 48 33 37 48 60 65 68 65 66
42 41 39 37 40 35 35 42 43 48 42 36 31 29 31 34 40 48 52 55 57 35 60 60 59 61 39 58 67 75 73 66 62 58 56 52 48 50
41 41 37 36 34 29 31 37 40 33 27 27 24 24 28 36 41 45 48 50 51 47 50 50 50 49 40 44 59 55 53 51 49 50 49 47 46 43
37 34 32 35 30 31 31 33 33 26 16 14 18 26 35 44 46 47 45 42 43 42 41 39 39 39 32 34 36 34 32 33 34 35 34 33 32 31
29 27 28 31 29 30 30 26 28 18 16 18 23 30 37 42 41 35 35 35 35 34 35 37 37 32 27 20 22 22 23 25 23 21 19 20 24 22
25 25 24 28 29 28 27 23 24 24 25 27 27 30 34 35 36 38 38 34 31 31 32 31 31 31 29 24 13 10 10 4 9 12 15 16 16 15
29 27 22 23 25 25 27 28 28 28 27 29 29 29 30 32 33 35 36 37 36 33 29 27 26 26 26 22 15 11 8 7 4 7 12 15 15 12
26 27 25 27 29 30 28 27 27 26 26 26 26 27 28 30 34 34 34 35 34 32 29 26 24 22 18 15 14 13 11 8 8 10 11 11 10 9
25 28 29 31 35 33 32 31 31 30 28 25 25 26 29 32 33 34 33 31 30 29 28 26 24 20 15 15 13 15 11 10 10 10 11 11 11 12
26 28 30 32 34 34 33 33 31 29 28 28 28 32 36 37 36 33 32 32 30 28 26 24 21 17 14 13 13 15 14 12 11 12 13 15 17 18
33 32 32 32 33 34 34 31 30 27 29 34 36 36 34 32 30 28 27 27 26 25 24 22 18 16 13 12 11 12 13 14 14 14 16 18 18 19
35 34 34 35 36 35 34 32 29 26 31 36 35 34 31 28 26 25 24 22 22 22 22 21 19 17 15 13 13 13 13 15 17 18 18 19 18 13
36 36 37 37 37 37 36 34 31 29 31 32 33 30 27 24 21 20 20 21 21 22 22 22 22 19 17 15 14 15 16 16 16 18 21 20 21 24
Wind_Direction_500mb
319 317 317 314 314 312 310 310 311 311 307 313 313 312 312 311 309 307 305 302 301 294 291 289 289 286 285 283 281 282 284 280 278 279 279 276 274 273
318 317 317 315 316 314 312 310 308 304 299 304 309 312 313 313 312 311 309 309 308 309 306 299 297 291 292 288 287 283 281 281 278 278 276 275 274 273
318 318 319 318 318 316 313 311 308 304 298 302 307 311 313 317 317 317 316 314 311 309 307 306 302 296 291 285 285 286 287 286 284 283 279 276 273 272
323 322 323 322 322 320 318 316 313 311 306 304 312 316 317 320 318 320 321 318 316 313 313 308 306 301 299 291 286 281 280 281 281 280 279 278 275 270
327 327 327 325 325 325 324 324 323 320 313 309 312 318 322 326 325 325 324 321 317 312 313 313 314 311 308 302 297 288 284 279 278 278 277 275 274 273
326 325 325 327 328 328 327 327 326 323 324 322 321 322 321 323 319 322 319 318 317 321 323 321 320 313 307 300 299 295 286 283 282 281 280 277 273 270
329 328 328 327 328 329 329 329 329 330 329 325 320 317 319 322 324 328 324 326 328 328 323 321 324 326 328 320 312 306 300 294 292 291 289 286 276 269
331 331 330 332 334 333 334 337 337 330 323 322 321 326 328 328 330 328 331 324 324 336 331 330 335 331 330 322 318 312 304 298 303 308 308 297 289 243
331 331 331 336 336 336 339 337 338 341 338 332 323 326 326 330 327 324 327 329 328 340 335 333 342 340 337 336 332 322 314 306 320 310 80 322 86 154
333 333 338 338 340 341 336 340 341 348 336 335 329 326 323 323 325 331 335 336 346 351 337 341 349 349 358 353 349 342 337 349 52 288 128 107 116 119
326 335 338 337 340 341 343 340 340 338 339 344 344 340 343 344 344 349 357 357 356 1 356 357 357 357 11 17 30 35 50 107 114 117 115 113 106 95
337 341 339 340 339 341 339 329 337 333 344 357 4 4 6 4 2 0 359 3 6 4 1 2 9 8 12 46 70 79 81 87 89 83 78 73 71 79
339 335 338 338 336 340 324 330 337 338 354 3 15 18 14 9 7 6 3 4 5 7 2 8 14 22 30 48 76 80 81 80 74 75 73 67 62 59
331 333 336 338 335 333 328 333 339 345 354 9 3 3 5 6 7 3 4 8 8 7 6 11 20 26 34 51 70 86 78 71 61 62 62 55 56 65
322 321 325 331 331 333 327 328 342 346 340 340 348 350 352 353 353 356 5 10 8 10 17 19 22 26 30 48 66 90 100 86 82 77 66 63 63 64
316 310 315 324 323 323 322 313 319 326 324 325 329 336 337 339 348 354 3 7 10 8 14 19 25 24 21 33 51 93 100 53 84 65 47 44 38 27
315 309 301 313 315 308 302 299 301 304 303 305 314 323 330 338 347 355 355 357 358 359 3 6 7 10 15 21 33 45 25 15 289 330 337 341 347 355
299 298 296 307 310 309 306 300 300 302 304 306 315 322 330 339 344 346 346 346 347 348 351 353 358 357 358 0 19 29 29 17 356 344 345 360 20 22
290 291 293 299 302 300 300 301 301 300 302 310 317 323 330 332 334 336 338 340 340 341 344 349 351 353 355 7 8 15 13 7 358 352 352 352 349 343
289 287 288 292 295 297 298 297 295 296 301 307 312 320 324 327 327 329 333 337 339 339 340 340 342 351 1 7 1 357 4 356 347 336 328 324 323 321
287 287 287 287 285 283 283 283 285 291 302 307 313 318 320 321 325 331 335 334 334 335 338 340 348 352 354 350 344 338 337 338 337 330 323 321 320 315
290 290 285 282 280 279 278 279 282 296 303 307 310 315 317 321 325 329 331 334 337 342 343 343 344 342 341 337 332 330 330 330 328 326 324 319 316 306
283 282 282 281 280 278 278 278 282 289 296 302 306 308 313 319 324 328 332 338 340 340 338 335 331 329 327 326 326 323 322 320 319 316 312 308 304 304
Wind_Speed_850mb
41 43 46 48 48 49 50 50 55 74 137 79 68 94 95 95 97 88 87 86 82 77 83 86 89 85 89 91 93 92 86 91 89 93 91 88 88 89
48 50 51 54 54 54 55 55 54 59 90 106 110 105 101 101 93 85 87 87 82 75 73 77 80 77 80 85 85 87 88 91 93 90 90 87 87 84
48 52 53 55 55 55 55 56 58 60 75 116 98 102 102 98 100 95 90 83 80 81 81 79 78 74 78 79 80 82 83 85 87 87 88 90 92 91
50 51 51 53 52 54 57 58 59 57 61 86 101 104 93 93 96 97 93 86 85 81 81 74 79 80 73 71 75 79 82 83 84 83 85 85 88 89
50 51 52 53 55 56 57 59 61 58 59 68 93 91 98 94 98 91 93 89 80 81 88 85 76 69 68 66 68 68 71 77 87 90 90 92 93 93
48 48 50 54 59 62 63 63 63 59 62 67 79 90 87 83 72 86 99 88 89 93 83 82 78 78 73 67 68 65 72 75 76 81 85 89 90 92
51 52 53 56 59 60 59 59 54 56 61 68 77 79 80 89 83 84 87 98 89 77 98 80 76 65 62 62 64 62 62 65 68 69 74 84 88 86
54 54 56 58 59 56 50 42 44 52 56 57 62 66 76 81 88 82 75 83 95 84 74 70 62 61 59 63 61 60 57 55 54 52 53 55 51 29
54 54 55 56 53 53 49 49 47 44 37 43 58 61 68 68 70 76 79 73 73 68 63 65 60 61 59 55 59 56 47 42 21 34 8 5 10 71
50 50 52 53 51 47 49 45 46 41 41 51 42 44 45 52 56 57 61 61 55 49 49 63 62 67 46 64 54 46 34 19 5 15 24 79 91 95
44 42 41 46 44 43 42 47 46 44 48 37 33 36 37 38 44 49 55 62 68 49 57 58 61 64 54 57 49 48 33 37 48 60 65 68 65 66
42 41 39 37 40 35 35 42 43 48 42 36 31 29 31 34 40 48 52 55 57 35 60 60 59 61 39 58 67 75 73 66 62 58 56 52 48 50
41 41 37 36 34 29 31 37 40 33 27 27 24 24 28 36 41 45 48 50 51 47 50 50 50 49 40 44 59 55 53 51 49 50 49 47 46 43
37 34 32 35 30 31 31 33 33 26 16 14 18 26 35 44 46 47 45 42 43 42 41 39 39 39 32 34 36 34 32 33 34 35 34 33 32 31
29 27 28 31 29 30 30 26 28 18 16 18 23 30 37 42 41 35 35 35 35 34 35 37 37 32 27 20 22 22 23 25 23 21 19 20 24 22
25 25 24 28 29 28 27 23 24 24 25 27 27 30 34 35 36 38 38 34 31 31 32 31 31 31 29 24 13 10 10 4 9 12 15 16 16 15
29 27 22 23 25 25 27 28 28 28 27 29 29 29 30 32 33 35 36 37 36 33 29 27 26 26 26 22 15 11 8 7 4 7 12 15 15 12
26 27 25 27 29 30 28 27 27 26 26 26 26 27 28 30 34 34 34 35 34 32 29 26 24 22 18 15 14 13 11 8 8 10 11 11 10 9
25 28 29 31 35 33 32 31 31 30 28 25 25 26 29 32 33 34 33 31 30 29 28 26 24 20 15 15 13 15 11 10 10 10 11 11 11 12
26 28 30 32 34 34 33 33 31 29 28 28 28 32 36 37 36 33 32 32 30 28 26 24 21 17 14 13 13 15 14 12 11 12 13 15 17 18
33 32 32 32 33 34 34 31 30 27 29 34 36 36 34 32 30 28 27 27 26 25 24 22 18 16 13 12 11 12 13 14 14 14 16 18 18 19
35 34 34 35 36 35 34 32 29 26 31 36 35 34 31 28 26 25 24 22 22 22 22 21 19 17 15 13 13 13 13 15 17 18 18 19 18 13
36 36 37 37 37 37 36 34 31 29 31 32 33 30 27 24 21 20 20 21 21 22 22 22 22 19 17 15 14 15 16 16 16 18 21 20 21 24
Wind_Direction_850mb
319 317 317 314 314 312 310 310 311 311 307 313 313 312 312 311 309 307 305 302 301 294 291 289 289 286 285 283 281 282 284 280 278 279 279 276 274 273
318 317 317 315 316 314 312 310 308 304 299 304 309 312 313 313 312 311 309 309 308 309 306 299 297 291 292 288 287 283 281 281 278 278 276 275 274 273
318 318 319 318 318 316 313 311 308 304 298 302 307 311 313 317 317 317 316 314 311 309 307 306 302 296 291 285 285 286 287 286 284 283 279 276 273 272
323 322 323 322 322 320 318 316 313 311 306 304 312 316 317 320 318 320 321 318 316 313 313 308 306 301 299 291 286 281 280 281 281 280 279 278 275 270
327 327 327 325 325 325 324 324 323 320 313 309 312 318 322 326 325 325 324 321 317 312 313 313 314 311 308 302 297 288 284 279 278 278 277 275 274 273
326 325 325 327 328 328 327 327 326 323 324 322 321 322 321 323 319 322 319 318 317 321 323 321 320 313 307 300 299 295 286 283 282 281 280 277 273 270
329 328 328 327 328 329 329 329 329 330 329 325 320 317 319 322 324 328 324 326 328 328 323 321 324 326 328 320 312 306 300 294 292 291 289 286 276 269
331 331 330 332 334 333 334 337 337 330 323 322 321 326 328 328 330 328 331 324 324 336 331 330 335 331 330 322 318 312 304 298 303 308 308 297 289 243
331 331 331 336 336 336 339 337 338 341 338 332 323 326 326 330 327 324 327 329 328 340 335 333 342 340 337 336 332 322 314 306 320 310 80 322 86 154
333 333 338 338 340 341 336 340 341 348 336 335 329 326 323 323 325 331 335 336 346 351 337 341 349 349 358 353 349 342 337 349 52 288 128 107 116 119
326 335 338 337 340 341 343 340 340 338 339 344 344 340 343 344 344 349 357 357 356 1 356 357 357 357 11 17 30 35 50 107 114 117 115 113 106 95
337 341 339 340 339 341 339 329 337 333 344 357 4 4 6 4 2 0 359 3 6 4 1 2 9 8 12 46 70 79 81 87 89 83 78 73 71 79
339 335 338 338 336 340 324 330 337 338 354 3 15 18 14 9 7 6 3 4 5 7 2 8 14 22 30 48 76 80 81 80 74 75 73 67 62 59
331 333 336 338 335 333 328 333 339 345 354 9 3 3 5 6 7 3 4 8 8 7 6 11 20 26 34 51 70 86 78 71 61 62 62 55 56 65
322 321 325 331 331 333 327 328 342 346 340 340 348 350 352 353 353 356 5 10 8 10 17 19 22 26 30 48 66 90 100 86 82 77 66 63 63 64
316 310 315 324 323 323 322 313 319 326 324 325 329 336 337 339 348 354 3 7 10 8 14 19 25 24 21 33 51 93 100 53 84 65 47 44 38 27
315 309 301 313 315 308 302 299 301 304 303 305 314 323 330 338 347 355 355 357 358 359 3 6 7 10 15 21 33 45 25 15 289 330 337 341 347 355
299 298 296 307 310 309 306 300 300 302 304 306 315 322 330 339 344 346 346 346 347 348 351 353 358 357 358 0 19 29 29 17 356 344 345 360 20 22
290 291 293 299 302 300 300 301 301 300 302 310 317 323 330 332 334 336 338 340 340 341 344 349 351 353 355 7 8 15 13 7 358 352 352 352 349 343
289 287 288 292 295 297 298 297 295 296 301 307 312 320 324 327 327 329 333 337 339 339 340 340 342 351 1 7 1 357 4 356 347 336 328 324 323 321
287 287 287 287 285 283 283 283 285 291 302 307 313 318 320 321 325 331 335 334 334 335 338 340 348 352 354 350 344 338 337 338 337 330 323 321 320 315
290 290 285 282 280 279 278 279 282 296 303 307 310 315 317 321 325 329 331 334 337 342 343 343 344 342 341 337 332 330 330 330 328 326 324 319 316 306
283 282 282 281 280 278 278 278 282 289 296 302 306 308 313 319 324 328 332 338 340 340 338 335 331 329 327 326 326 323 322 320 319 316 312 308 304 304